Location: Unspecified
(0.0000°N, 0.0000°E)
Time: 14:11:33
(UTC+00:00)

Transit 2A - All Passes

Search period start: 30 March 2015 00:00
Search period end: 09 April 2015 00:00
Orbit: 592 x 969 km, 66.7° (Epoch: 29 March)

Date Brightness Start Highest point End Pass type
(mag) Time Alt. Az. Time Alt. Az. Time Alt. Az.
30 Mar - 00:56:53 10° W 00:59:08 12° WSW 01:00:57 10° SW night (unlit)
30 Mar - 11:44:01 10° SSW 11:49:10 72° WNW 11:54:55 10° NNE daylight
30 Mar - 22:38:05 10° NNE 22:42:17 23° ENE 22:46:19 10° ESE night (unlit)
31 Mar - 00:21:19 10° WNW 00:25:23 21° WSW 00:29:00 10° SSW night (unlit)
31 Mar - 11:10:19 10° SSW 11:15:26 69° ESE 11:21:10 10° NNE daylight
31 Mar - 22:05:52 10° NE 22:08:21 14° ENE 22:11:04 10° E night (unlit)
31 Mar - 23:46:44 10° NW 23:51:40 36° WSW 23:56:06 10° S night (unlit)
01 Apr - 10:36:56 10° S 10:41:44 41° ESE 10:47:06 10° NE daylight
01 Apr - 12:22:14 10° W 12:25:07 14° WNW 12:27:44 10° NW daylight
01 Apr - 23:12:36 10° NNW 23:17:58 62° WSW 23:22:47 10° S night (unlit)
02 Apr - 10:03:55 10° SSE 10:08:02 25° ESE 10:12:38 10° NE daylight
02 Apr - 11:46:56 10° WSW 11:51:11 23° WNW 11:55:33 10° NNW daylight
02 Apr - 22:38:48 10° NNW 22:44:15 77° ENE 22:49:08 10° SSE night (unlit)
03 Apr - 09:31:35 10° SE 09:34:17 15° ESE 09:37:27 10° ENE daylight
03 Apr - 11:12:25 10° SW 11:17:19 37° WNW 11:22:37 10° N daylight
03 Apr - 22:05:19 10° N 22:10:29 44° ENE 22:15:11 10° SE night (unlit)
04 Apr - 10:38:19 10° SSW 10:43:31 62° WNW 10:49:16 10° N daylight
04 Apr - 21:32:13 10° NNE 21:36:38 26° ENE 21:40:51 10° SE night (unlit)
04 Apr - 23:16:07 10° WNW 23:19:42 18° WSW 23:22:50 10° SSW night (unlit)
05 Apr - 10:04:32 10° SSW 10:09:46 81° ESE 10:15:37 10° NNE daylight
05 Apr - 20:59:42 10° NNE 21:02:44 16° ENE 21:05:54 10° ESE night (unlit)
05 Apr - 22:41:19 10° NW 22:45:58 30° WSW 22:50:09 10° S night (unlit)
06 Apr - 09:31:03 10° S 09:36:03 48° ESE 09:41:38 10° NE daylight
06 Apr - 11:17:18 10° W 11:19:32 12° WNW 11:21:20 10° NW daylight
06 Apr - 22:07:04 10° NNW 22:12:16 52° WSW 22:16:56 10° S night (unlit)
07 Apr - 08:57:53 10° SSE 09:02:20 29° ESE 09:07:18 10° NE daylight
07 Apr - 10:41:32 10° WSW 10:45:34 20° WNW 10:49:36 10° NNW daylight
07 Apr - 21:33:09 10° NNW 21:38:33 90° SSE 21:43:22 10° SSE night (unlit)
08 Apr - 08:25:15 10° SSE 08:28:36 18° ESE 08:32:25 10° ENE daylight
08 Apr - 10:06:52 10° SW 10:11:40 32° WNW 10:16:49 10° N daylight
08 Apr - 20:59:35 10° N 21:04:47 52° ENE 21:09:31 10° SE night (unlit)
